Location: Sungai Dangang
(2.7500°N, 113.8333°E)
Time: 19:04:52
(UTC+00:00)

Ariane H10+ - Pass Details

Date: 16 May 2021
Orbit: 258 x 24384 km, 6.5° (Epoch: 20 June)

Event Time Altitude Azimuth Distance (km) Brightness Sun altitude
Exits shadow 21:39:13 12° 257° (WSW) 1,466 3.3 -8.9°
Maximum altitude 21:41:57 54° 177° (S) 913 2.8 -8.3°
Drops below altitude 10° 21:53:12 10° 102° (ESE) 5,733 8.0 -5.7°
Sets 22:04:27 0° 99° (E) 10,045 9.4 -3.0°
